Weather History for Newton, KS

Change the Weather History Date:

Saturday, November 17, 2012

  Actual Average Record
Temperature  
Mean Temperature 46 °F -  
Max Temperature 60 °F 51 °F 75 °F (1999)
Min Temperature 33 °F 34 °F 12 °F (2014)
Degree Days  
Heating Degree Days 18    
Moisture  
Dew Point 29 °F    
Average Humidity 54    
Maximum Humidity 81    
Minimum Humidity 34    
Precipitation  
Precipitation 0.00 in - - ()
Sea Level Pressure  
Sea Level Pressure 30.27 in    
Wind  
Wind Speed 12 mph (SSE)    
Max Wind Speed 25 mph    
Max Gust Speed 32 mph    
Visibility 10 miles    
Events      
Averages and records for this station are not official NWS values.
T = Trace of Precipitation, MM = Missing Value Source: NWS Daily Summary

Daily Weather History Graph

Daily Weather History Graph

Search for Another Location

Airport:

Trip Planner

Search our weather history database for the weather conditions in past years. The results will help you decide how hot, cold, wet, or windy it might be!

Date:

Astronomy

Nov. 17, 2012 Rise Set
Actual Time 7:12 AM CST 5:15 PM CST
Civil Twilight 6:44 AM CST 5:43 PM CST
Nautical Twilight 6:12 AM CST 6:15 PM CST
Astronomical Twilight 5:41 AM CST 6:46 PM CST
Moon 10:58 AM CST (11/17) 9:26 PM CST (11/17)
Length of Visible Light 10h 59m
Length of Day
10h 02m
Waxing Crescent, 20% of the Moon is Illuminated
Nov 17
Waxing Crescent
Nov 20
First Quarter
Nov 28
Full
Dec 6
Last Quarter
Dec 13
New

Hourly Weather History & Observations

Time (CST) Temp. Windchill Dew Point Humidity Pressure Visibility Wind Dir Wind Speed Gust Speed Precip Events Conditions
12:15 AM 39.2 °F 33.0 °F 28.4 °F 65% 30.34 in 10.0 mi South 9.2 mph - N/A   Clear
12:35 AM 39.2 °F 33.0 °F 28.4 °F 65% 30.34 in 10.0 mi SSE 9.2 mph - N/A   Clear
12:55 AM 39.2 °F 33.0 °F 28.4 °F 65% 30.33 in 10.0 mi South 9.2 mph - N/A   Clear
1:15 AM 41.0 °F 34.7 °F 28.4 °F 61% 30.33 in 10.0 mi SSE 10.4 mph - N/A   Clear
1:35 AM 39.2 °F 33.6 °F 28.4 °F 65% 30.33 in 10.0 mi SSE 8.1 mph - N/A   Clear
1:55 AM 37.4 °F 31.4 °F 28.4 °F 70% 30.33 in 10.0 mi SSE 8.1 mph - N/A   Clear
2:15 AM 37.4 °F 30.8 °F 28.4 °F 70% 30.33 in 10.0 mi SSE 9.2 mph - N/A   Clear
2:35 AM 37.4 °F 30.8 °F 28.4 °F 70% 30.32 in 10.0 mi SSE 9.2 mph - N/A   Clear
2:55 AM 39.2 °F 32.5 °F 28.4 °F 65% 30.32 in 10.0 mi South 10.4 mph - N/A   Clear
3:15 AM 39.2 °F 32.5 °F 28.4 °F 65% 30.32 in 10.0 mi SSE 10.4 mph - N/A   Clear
3:35 AM 37.4 °F 30.8 °F 28.4 °F 70% 30.31 in 10.0 mi SSE 9.2 mph - N/A   Clear
3:55 AM 39.2 °F 32.0 °F 28.4 °F 65% 30.31 in 10.0 mi SSE 11.5 mph - N/A   Clear
4:15 AM 37.4 °F 30.8 °F 28.4 °F 70% 30.31 in 10.0 mi SSE 9.2 mph - N/A   Clear
4:35 AM 37.4 °F 32.1 °F 28.4 °F 70% 30.31 in 10.0 mi SSE 6.9 mph - N/A   Clear
4:55 AM 35.6 °F 28.6 °F 28.4 °F 75% 30.31 in 10.0 mi SSE 9.2 mph - N/A   Clear
5:15 AM 37.4 °F 30.8 °F 28.4 °F 70% 30.30 in 10.0 mi SSE 9.2 mph - N/A   Clear
5:35 AM 35.6 °F 28.6 °F 28.4 °F 75% 30.30 in 10.0 mi SSE 9.2 mph - N/A   Clear
5:55 AM 35.6 °F 28.6 °F 28.4 °F 75% 30.30 in 10.0 mi SSE 9.2 mph - N/A   Clear
6:15 AM 37.4 °F 30.3 °F 28.4 °F 70% 30.30 in 10.0 mi South 10.4 mph - N/A   Clear
6:35 AM 37.4 °F 30.3 °F 28.4 °F 70% 30.31 in 10.0 mi SSE 10.4 mph - N/A   Clear
6:55 AM 35.6 °F 29.2 °F 28.4 °F 75% 30.31 in 10.0 mi SSE 8.1 mph - N/A   Clear
7:15 AM 33.8 °F 27.0 °F 26.6 °F 75% 30.31 in 10.0 mi SSE 8.1 mph - N/A   Clear
7:35 AM 33.8 °F 26.4 °F 28.4 °F 81% 30.32 in 10.0 mi SSE 9.2 mph - N/A   Clear
7:55 AM 35.6 °F 28.6 °F 30.2 °F 81% 30.32 in 10.0 mi SSE 9.2 mph - N/A   Clear
8:15 AM 39.2 °F 32.5 °F 30.2 °F 70% 30.32 in 10.0 mi South 10.4 mph - N/A   Clear
8:35 AM 41.0 °F 34.3 °F 32.0 °F 70% 30.32 in 10.0 mi South 11.5 mph - N/A   Clear
8:55 AM 44.6 °F 38.4 °F 32.0 °F 61% 30.32 in 10.0 mi South 12.7 mph - N/A   Clear
9:15 AM 46.4 °F 40.1 °F 32.0 °F 57% 30.32 in 10.0 mi South 15.0 mph - N/A   Clear
9:35 AM 48.2 °F - 33.8 °F 58% 30.32 in 10.0 mi South 15.0 mph - N/A   Clear
9:55 AM 51.8 °F - 33.8 °F 50% 30.32 in 10.0 mi South 19.6 mph - N/A   Clear
10:15 AM 53.6 °F - 32.0 °F 44% 30.32 in 10.0 mi South 20.7 mph 26.5 mph N/A   Clear
10:35 AM 53.6 °F - 32.0 °F 44% 30.32 in 10.0 mi South 21.9 mph 27.6 mph N/A   Clear
10:55 AM 55.4 °F - 30.2 °F 38% 30.32 in 10.0 mi SSW 21.9 mph 29.9 mph N/A   Clear
11:15 AM 55.4 °F - 30.2 °F 38% 30.31 in 10.0 mi South 21.9 mph 31.1 mph N/A   Clear
11:35 AM 57.2 °F - 30.2 °F 36% 30.31 in 10.0 mi South 24.2 mph 32.2 mph N/A   Clear
11:55 AM 57.2 °F - 30.2 °F 36% 30.30 in 10.0 mi SSW 25.3 mph 32.2 mph N/A   Clear
12:15 PM 57.2 °F - 30.2 °F 36% 30.29 in 10.0 mi South 24.2 mph 31.1 mph N/A   Clear
12:35 PM 57.2 °F - 30.2 °F 36% 30.27 in 10.0 mi South 25.3 mph 31.1 mph N/A   Clear
12:55 PM 59.0 °F - 33.8 °F 39% 30.26 in 10.0 mi South 23.0 mph 29.9 mph N/A   Clear
1:15 PM 59.0 °F - 32.0 °F 36% 30.24 in 10.0 mi South 24.2 mph 31.1 mph N/A   Clear
1:35 PM 57.2 °F - 30.2 °F 36% 30.24 in 10.0 mi South 21.9 mph 28.8 mph N/A   Clear
1:55 PM 59.0 °F - 32.0 °F 36% 30.23 in 10.0 mi South 23.0 mph 29.9 mph N/A   Clear
2:15 PM 60.8 °F - 32.0 °F 34% 30.22 in 10.0 mi South 23.0 mph 27.6 mph N/A   Clear
2:35 PM 59.0 °F - 30.2 °F 34% 30.21 in 10.0 mi SSE 21.9 mph - N/A   Clear
2:55 PM 59.0 °F - 30.2 °F 34% 30.21 in 10.0 mi South 21.9 mph 28.8 mph N/A   Clear
3:15 PM 59.0 °F - 30.2 °F 34% 30.20 in 10.0 mi South 21.9 mph 27.6 mph N/A   Clear
3:35 PM 59.0 °F - 30.2 °F 34% 30.21 in 10.0 mi South 17.3 mph - N/A   Clear
3:55 PM 57.2 °F - 30.2 °F 36% 30.20 in 10.0 mi SSE 20.7 mph - N/A   Clear
4:15 PM 57.2 °F - 30.2 °F 36% 30.21 in 10.0 mi South 15.0 mph 24.2 mph N/A   Clear
4:35 PM 55.4 °F - 30.2 °F 38% 30.21 in 10.0 mi South 16.1 mph 24.2 mph N/A   Clear
4:55 PM 55.4 °F - 30.2 °F 38% 30.21 in 10.0 mi South 16.1 mph 23.0 mph N/A   Clear
5:15 PM 53.6 °F - 30.2 °F 41% 30.21 in 10.0 mi South 16.1 mph - N/A   Clear
5:35 PM 53.6 °F - 28.4 °F 38% 30.21 in 10.0 mi South 13.8 mph - N/A   Clear
5:55 PM 51.8 °F - 28.4 °F 41% 30.21 in 10.0 mi SSE 10.4 mph - N/A   Clear
6:15 PM 50.0 °F - 28.4 °F 43% 30.21 in 10.0 mi SSE 10.4 mph - N/A   Clear
6:35 PM 48.2 °F - 28.4 °F 46% 30.22 in 10.0 mi SSE 9.2 mph - N/A   Clear
6:55 PM 46.4 °F 42.4 °F 28.4 °F 50% 30.22 in 10.0 mi SSE 8.1 mph - N/A   Clear
7:15 PM 46.4 °F 41.9 °F 28.4 °F 50% 30.23 in 10.0 mi SSE 9.2 mph - N/A   Clear
7:35 PM 46.4 °F 41.5 °F 26.6 °F 46% 30.22 in 10.0 mi SSE 10.4 mph - N/A   Clear
7:55 PM 44.6 °F 40.2 °F 26.6 °F 49% 30.23 in 10.0 mi SSE 8.1 mph - N/A   Clear
8:15 PM 44.6 °F 39.7 °F 26.6 °F 49% 30.23 in 10.0 mi SSE 9.2 mph - N/A   Clear
8:35 PM 42.8 °F 38.0 °F 26.6 °F 53% 30.23 in 10.0 mi SSE 8.1 mph - N/A   Clear
8:55 PM 41.0 °F 35.2 °F 26.6 °F 57% 30.24 in 10.0 mi SSE 9.2 mph - N/A   Clear
9:15 PM 42.8 °F 37.5 °F 26.6 °F 53% 30.23 in 10.0 mi SSE 9.2 mph - N/A   Clear
9:35 PM 42.8 °F 37.5 °F 26.6 °F 53% 30.23 in 10.0 mi SSE 9.2 mph - N/A   Clear
9:55 PM 41.0 °F 35.2 °F 26.6 °F 57% 30.24 in 10.0 mi SSE 9.2 mph - N/A   Clear
10:15 PM 41.0 °F 34.7 °F 26.6 °F 57% 30.23 in 10.0 mi SSE 10.4 mph - N/A   Clear
10:35 PM 41.0 °F 35.2 °F 26.6 °F 57% 30.23 in 10.0 mi SSE 9.2 mph - N/A   Clear
10:55 PM 41.0 °F 35.8 °F 26.6 °F 57% 30.23 in 10.0 mi SSE 8.1 mph - N/A   Clear
11:15 PM 39.2 °F 33.6 °F 26.6 °F 61% 30.23 in 10.0 mi SSE 8.1 mph - N/A   Clear
11:35 PM 39.2 °F 33.6 °F 26.6 °F 61% 30.23 in 10.0 mi SE 8.1 mph - N/A   Clear
11:55 PM 39.2 °F 33.6 °F 26.6 °F 61% 30.23 in 10.0 mi SSE 8.1 mph - N/A   Clear